FW8377 Weather Reports


Display with metric or nautical units.
time (UTC)temp
F
wind
direction
speed
MPH
gust
MPH
rain 1hr
in
rain 24hr
in
rain mn
in
humidity
%
barometer
mb
20260503211057 59 60 1.0 3.0 0.00 0.00 0.00 84 1022.4
20260503210056 59 126 2.0 4.0 0.00 0.00 0.00 84 1022.4
20260503205115 59 154 1.0 4.0 0.00 0.00 0.00 83 1022.5
20260503204054 59 135 2.0 4.0 0.00 0.00 0.00 83 1022.3
20260503203053 59 139 2.0 5.0 0.00 0.00 0.00 82 1022.3
20260503202132 59 97 1.0 4.0 0.00 0.00 0.00 82 1022.3
20260503201105 60 176 3.0 6.0 0.00 0.00 0.00 81 1022.3
20260503200049 60 90 2.0 6.0 0.00 0.00 0.00 80 1022.0
20260503195107 60 139 3.0 8.0 0.00 0.00 0.00 80 1022.0
20260503194047 60 139 4.0 9.0 0.00 0.00 0.00 79 1021.9
20260503193045 61 118 3.0 8.0 0.00 0.00 0.00 78 1021.7
20260503192044 61 119 3.0 7.0 0.00 0.00 0.00 77 1021.7
20260503191044 61 155 4.0 9.0 0.00 0.00 0.00 77 1021.6
20260503185041 63 112 3.0 6.0 0.00 0.00 0.00 74 1021.4
20260503184039 64 156 5.0 10.0 0.00 0.00 0.00 73 1021.0
20260503183038 64 186 3.0 7.0 0.00 0.00 0.00 71 1020.9
20260503182057 65 200 3.0 7.0 0.00 0.00 0.00 70 1020.8
20260503181037 66 220 3.0 6.0 0.00 0.00 0.00 68 1020.9
20260503180036 67 216 3.0 7.0 0.00 0.00 0.00 66 1020.5
20260503175034 68 228 3.0 5.0 0.00 0.00 0.00 63 1020.5
20260503174052 69 152 1.0 4.0 0.00 0.00 0.00 62 1020.3
20260503173032 69 219 1.0 5.0 0.00 0.00 0.00 58 1020.3
20260503172031 69 270 1.0 4.0 0.00 0.00 0.00 59 1020.1
20260503171030 70 181 3.0 5.0 0.00 0.00 0.00 57 1020.2
20260503150133 75 284 5.0 11.0 0.00 0.00 0.00 41 1020.8
20260503140122 75 274 7.0 16.0 0.00 0.00 0.00 43 1021.1
20260503131114 74 308 8.0 13.0 0.00 0.00 0.00 47 1021.5
20260503081019 63 160 1.0 3.0 0.00 0.00 0.00 61 1023.8
20260503072113 61 53 2.0 4.0 0.00 0.00 0.00 62 1024.2
20260503071110 59 21 3.0 5.0 0.00 0.00 0.00 65 1024.2
20260503070110 59 20 3.0 6.0 0.00 0.00 0.00 65 1024.3
20260503055056 53 3 4.0 6.0 0.00 0.00 0.00 77 1024.1
20260503054055 53 20 4.0 7.0 0.00 0.00 0.00 79 1024.2
20260503053054 52 11 3.0 7.0 0.00 0.00 0.00 81 1024.0
20260503052052 51 8 4.0 7.0 0.00 0.00 0.00 84 1024.1
20260503051051 49 3 3.0 5.0 0.00 0.00 0.00 88 1024.0
20260503050049 47 350 5.0 7.0 0.00 0.00 0.00 90 1024.0
20260503045048 47 8 4.0 9.0 0.00 0.00 0.00 92 1024.1
20260503044047 46 12 4.0 8.0 0.00 0.00 0.00 92 1024.1
20260503043046 46 10 4.0 7.0 0.00 0.00 0.00 92 1024.0
20260503042045 47 16 5.0 10.0 0.00 0.00 0.00 90 1024.0
20260503041043 48 21 3.0 5.0 0.00 0.00 0.00 88 1023.9
20260503040042 48 5 2.0 4.0 0.00 0.00 0.00 87 1023.9
20260503035041 48 6 3.0 6.0 0.00 0.00 0.00 87 1023.9
20260503034040 49 9 4.0 8.0 0.00 0.00 0.00 86 1023.8
20260503033039 49 9 4.0 7.0 0.00 0.00 0.00 86 1023.8
20260503032037 49 1 2.0 4.0 0.00 0.00 0.00 86 1023.7
20260503031037 49 356 3.0 5.0 0.00 0.00 0.00 85 1023.6
20260503030056 49 16 3.0 6.0 0.00 0.00 0.00 85 1023.7
20260503025034 50 9 3.0 7.0 0.00 0.00 0.00 84 1023.7
20260503024034 50 11 3.0 7.0 0.00 0.00 0.00 84 1023.6
20260503023032 50 5 3.0 6.0 0.00 0.00 0.00 84 1023.7
20260503022031 50 7 4.0 7.0 0.00 0.00 0.00 83 1023.7
20260503021030 50 7 4.0 8.0 0.00 0.00 0.00 82 1023.8
20260503020029 50 360 4.0 6.0 0.00 0.00 0.00 83 1023.8
20260503015027 51 360 4.0 6.0 0.00 0.00 0.00 82 1023.9
20260503014027 51 12 4.0 6.0 0.00 0.00 0.00 81 1023.9
20260503013026 51 5 3.0 5.0 0.00 0.00 0.00 80 1023.9
20260503012044 51 10 4.0 7.0 0.00 0.00 0.00 80 1024.1
20260503011023 52 3 4.0 6.0 0.00 0.00 0.00 80 1024.1
20260503010022 52 6 4.0 8.0 0.00 0.00 0.00 79 1024.2
20260503005022 52 353 3.0 6.0 0.00 0.00 0.00 79 1024.3
20260503004039 52 350 2.0 4.0 0.00 0.00 0.00 79 1024.3
20260503003017 53 4 3.0 7.0 0.00 0.00 0.00 79 1024.3
20260503002016 53 352 2.0 4.0 0.00 0.00 0.00 79 1024.5
20260503001115 53 3 3.0 5.0 0.00 0.00 0.00 79 1024.5
20260503000134 53 4 3.0 5.0 0.00 0.00 0.00 79 1024.7
20260502235116 53 352 3.0 5.0 0.00 0.00 0.00 79 1024.7
20260502234113 53 355 2.0 4.0 0.00 0.00 0.00 79 1024.7
20260502233110 53 0 2.0 3.0 0.00 0.00 0.00 80 1024.8
20260502232129 53 352 2.0 5.0 0.00 0.00 0.00 79 1024.9
20260502231108 54 360 3.0 5.0 0.00 0.00 0.00 78 1024.9
20260502230106 54 24 2.0 3.0 0.00 0.00 0.00 78 1025.0